Year,Month,Day,Hour,Minute,Value (Times are PST for insolation in W/m^2)
2018,09,01,00,00,0.00
2018,09,01,00,01,0.00
2018,09,01,00,02,0.00
2018,09,01,00,03,0.00
2018,09,01,00,04,0.00
2018,09,01,00,05,0.00
2018,09,01,00,06,0.00
2018,09,01,00,07,0.00
2018,09,01,00,08,0.00
2018,09,01,00,09,0.00
2018,09,01,00,10,0.00
2018,09,01,00,11,0.00
2018,09,01,00,12,0.00
2018,09,01,00,13,0.00
2018,09,01,00,14,0.00
2018,09,01,00,15,0.00
2018,09,01,00,16,0.00
2018,09,01,00,17,0.00
2018,09,01,00,18,0.00
2018,09,01,00,19,0.00
2018,09,01,00,20,0.00
2018,09,01,00,21,0.00
2018,09,01,00,22,0.00
2018,09,01,00,23,0.00
2018,09,01,00,24,0.00
2018,09,01,00,25,0.00
2018,09,01,00,26,0.00
2018,09,01,00,27,0.00
2018,09,01,00,28,0.00
2018,09,01,00,29,0.00
2018,09,01,00,30,0.00
2018,09,01,00,31,0.00
2018,09,01,00,32,0.00
2018,09,01,00,33,0.00
2018,09,01,00,34,0.00
2018,09,01,00,35,0.00
2018,09,01,00,36,0.00
2018,09,01,00,37,0.00
2018,09,01,00,38,0.00
2018,09,01,00,39,0.00
2018,09,01,00,40,0.00
2018,09,01,00,41,0.00
2018,09,01,00,42,0.00
2018,09,01,00,43,0.00
2018,09,01,00,44,0.00
2018,09,01,00,45,0.00
2018,09,01,00,46,0.00
2018,09,01,00,47,0.00
2018,09,01,00,48,0.00
2018,09,01,00,49,0.00
2018,09,01,00,50,0.00
2018,09,01,00,51,0.00
2018,09,01,00,52,0.00
2018,09,01,00,53,0.00
2018,09,01,00,54,0.00
2018,09,01,00,55,0.00
2018,09,01,00,56,0.00
2018,09,01,00,57,0.00
2018,09,01,00,58,0.00
2018,09,01,00,59,0.00
2018,09,01,01,00,0.00
2018,09,01,01,01,0.00
2018,09,01,01,02,0.00
2018,09,01,01,03,0.00
2018,09,01,01,04,0.00
2018,09,01,01,05,0.00
2018,09,01,01,06,0.00
2018,09,01,01,07,0.00
2018,09,01,01,08,0.00
2018,09,01,01,09,0.00
2018,09,01,01,10,0.00
2018,09,01,01,11,0.00
2018,09,01,01,12,0.00
2018,09,01,01,13,0.00
2018,09,01,01,14,0.00
2018,09,01,01,15,0.00
2018,09,01,01,16,0.00
2018,09,01,01,17,0.00
2018,09,01,01,18,0.00
2018,09,01,01,19,0.00
2018,09,01,01,20,0.00
2018,09,01,01,21,0.00
2018,09,01,01,22,0.00
2018,09,01,01,23,0.00
2018,09,01,01,24,0.00
2018,09,01,01,25,0.00
2018,09,01,01,26,0.00
2018,09,01,01,27,0.00
2018,09,01,01,28,0.00
2018,09,01,01,29,0.00
2018,09,01,01,30,0.00
2018,09,01,01,31,0.00
2018,09,01,01,32,0.00
2018,09,01,01,33,0.00
2018,09,01,01,34,0.00
2018,09,01,01,35,0.00
2018,09,01,01,36,0.00
2018,09,01,01,37,0.00
2018,09,01,01,38,0.00
2018,09,01,01,39,0.00
2018,09,01,01,40,0.00
2018,09,01,01,41,0.00
2018,09,01,01,42,0.00
2018,09,01,01,43,0.00
2018,09,01,01,44,0.00
2018,09,01,01,45,0.00
2018,09,01,01,46,0.00
2018,09,01,01,47,0.00
2018,09,01,01,48,0.00
2018,09,01,01,49,0.00
2018,09,01,01,50,0.00
2018,09,01,01,51,0.00
2018,09,01,01,52,0.00
2018,09,01,01,53,0.00
2018,09,01,01,54,0.00
2018,09,01,01,55,0.00
2018,09,01,01,56,0.00
2018,09,01,01,57,0.00
2018,09,01,01,58,0.00
2018,09,01,01,59,0.00
2018,09,01,02,00,0.00
2018,09,01,02,01,0.00
2018,09,01,02,02,0.00
2018,09,01,02,03,0.00
2018,09,01,02,04,0.00
2018,09,01,02,05,0.00
2018,09,01,02,06,0.00
2018,09,01,02,07,0.00
2018,09,01,02,08,0.00
2018,09,01,02,09,0.00
2018,09,01,02,10,0.00
2018,09,01,02,11,0.00
2018,09,01,02,12,0.00
2018,09,01,02,13,0.00
2018,09,01,02,14,0.00
2018,09,01,02,15,0.00
2018,09,01,02,16,0.00
2018,09,01,02,17,0.00
2018,09,01,02,18,0.00
2018,09,01,02,19,0.00
2018,09,01,02,20,0.00
2018,09,01,02,21,0.00
2018,09,01,02,22,0.00
2018,09,01,02,23,0.00
2018,09,01,02,24,0.00
2018,09,01,02,25,0.00
2018,09,01,02,26,0.00
2018,09,01,02,27,0.00
2018,09,01,02,28,0.00
2018,09,01,02,29,0.00
2018,09,01,02,30,0.00
2018,09,01,02,31,0.00
2018,09,01,02,32,0.00
2018,09,01,02,33,0.00
2018,09,01,02,34,0.00
2018,09,01,02,35,0.00
2018,09,01,02,36,0.00
2018,09,01,02,37,0.00
2018,09,01,02,38,0.00
2018,09,01,02,39,0.00
2018,09,01,02,40,0.00
2018,09,01,02,41,0.00
2018,09,01,02,42,0.00
2018,09,01,02,43,0.00
2018,09,01,02,44,0.00
2018,09,01,02,45,0.00
2018,09,01,02,46,0.00
2018,09,01,02,47,0.00
2018,09,01,02,48,0.00
2018,09,01,02,49,0.00
2018,09,01,02,50,0.00
2018,09,01,02,51,0.00
2018,09,01,02,52,0.00
2018,09,01,02,53,0.00
2018,09,01,02,54,0.00
2018,09,01,02,55,0.00
2018,09,01,02,56,0.00
2018,09,01,02,57,0.00
2018,09,01,02,58,0.00
2018,09,01,02,59,0.00
2018,09,01,03,00,0.00
2018,09,01,03,01,0.00
2018,09,01,03,02,0.00
2018,09,01,03,03,0.00
2018,09,01,03,04,0.00
2018,09,01,03,05,0.00
2018,09,01,03,06,0.00
2018,09,01,03,07,0.00
2018,09,01,03,08,0.00
2018,09,01,03,09,0.00
2018,09,01,03,10,0.00
2018,09,01,03,11,0.00
2018,09,01,03,12,0.00
2018,09,01,03,13,0.00
2018,09,01,03,14,0.00
2018,09,01,03,15,0.00
2018,09,01,03,16,0.00
2018,09,01,03,17,0.00
2018,09,01,03,18,0.00
2018,09,01,03,19,0.00
2018,09,01,03,20,0.00
2018,09,01,03,21,0.00
2018,09,01,03,22,0.00
2018,09,01,03,23,0.00
2018,09,01,03,24,0.00
2018,09,01,03,25,0.00
2018,09,01,03,26,0.00
2018,09,01,03,27,0.00
2018,09,01,03,28,0.00
2018,09,01,03,29,0.00
2018,09,01,03,30,0.00
2018,09,01,03,31,0.00
2018,09,01,03,32,0.00
2018,09,01,03,33,0.00
2018,09,01,03,34,0.00
2018,09,01,03,35,0.00
2018,09,01,03,36,0.00
2018,09,01,03,37,0.00
2018,09,01,03,38,0.00
2018,09,01,03,39,0.00
2018,09,01,03,40,0.00
2018,09,01,03,41,0.00
2018,09,01,03,42,0.00
2018,09,01,03,43,0.00
2018,09,01,03,44,0.00
2018,09,01,03,45,0.00
2018,09,01,03,46,0.00
2018,09,01,03,47,0.00
2018,09,01,03,48,0.00
2018,09,01,03,49,0.00
2018,09,01,03,50,0.00
2018,09,01,03,51,0.00
2018,09,01,03,52,0.00
2018,09,01,03,53,0.00
2018,09,01,03,54,0.00
2018,09,01,03,55,0.00
2018,09,01,03,56,0.00
2018,09,01,03,57,0.00
2018,09,01,03,58,0.00
2018,09,01,03,59,0.00
2018,09,01,04,00,0.00
2018,09,01,04,01,0.00
2018,09,01,04,02,0.00
2018,09,01,04,03,0.00
2018,09,01,04,04,0.00
2018,09,01,04,05,0.00
2018,09,01,04,06,0.00
2018,09,01,04,07,0.00
2018,09,01,04,08,0.00
2018,09,01,04,09,0.00
2018,09,01,04,10,0.00
2018,09,01,04,11,0.00
2018,09,01,04,12,0.00
2018,09,01,04,13,0.00
2018,09,01,04,14,0.00
2018,09,01,04,15,0.00
2018,09,01,04,16,0.00
2018,09,01,04,17,0.00
2018,09,01,04,18,0.00
2018,09,01,04,19,0.00
2018,09,01,04,20,0.00
2018,09,01,04,21,0.00
2018,09,01,04,22,0.00
2018,09,01,04,23,0.00
2018,09,01,04,24,0.00
2018,09,01,04,25,0.00
2018,09,01,04,26,0.00
2018,09,01,04,27,0.00
2018,09,01,04,28,0.00
2018,09,01,04,29,0.00
2018,09,01,04,30,0.00
2018,09,01,04,31,0.00
2018,09,01,04,32,0.00
2018,09,01,04,33,0.00
2018,09,01,04,34,0.00
2018,09,01,04,35,0.00
2018,09,01,04,36,0.00
2018,09,01,04,37,0.00
2018,09,01,04,38,0.00
2018,09,01,04,39,0.00
2018,09,01,04,40,0.00
2018,09,01,04,41,0.00
2018,09,01,04,42,0.00
2018,09,01,04,43,0.00
2018,09,01,04,44,0.00
2018,09,01,04,45,0.00
2018,09,01,04,46,0.00
2018,09,01,04,47,0.00
2018,09,01,04,48,0.00
2018,09,01,04,49,0.00
2018,09,01,04,50,0.00
2018,09,01,04,51,0.00
2018,09,01,04,52,0.00
2018,09,01,04,53,0.00
2018,09,01,04,54,0.00
2018,09,01,04,55,0.00
2018,09,01,04,56,0.00
2018,09,01,04,57,0.00
2018,09,01,04,58,0.00
2018,09,01,04,59,0.00
2018,09,01,05,00,0.00
2018,09,01,05,01,0.00
2018,09,01,05,02,0.00
2018,09,01,05,03,0.00
2018,09,01,05,04,0.00
2018,09,01,05,05,0.00
2018,09,01,05,06,0.00
2018,09,01,05,07,0.00
2018,09,01,05,08,0.00
2018,09,01,05,09,0.00
2018,09,01,05,10,0.00
2018,09,01,05,11,0.00
2018,09,01,05,12,0.00
2018,09,01,05,13,0.00
2018,09,01,05,14,0.00
2018,09,01,05,15,0.00
2018,09,01,05,16,0.00
2018,09,01,05,17,0.00
2018,09,01,05,18,0.00
2018,09,01,05,19,0.00
2018,09,01,05,20,0.00
2018,09,01,05,21,0.00
2018,09,01,05,22,0.00
2018,09,01,05,23,0.00
2018,09,01,05,24,0.00
2018,09,01,05,25,0.00
2018,09,01,05,26,0.00
2018,09,01,05,27,0.00
2018,09,01,05,28,0.00
2018,09,01,05,29,0.00
2018,09,01,05,30,0.00
2018,09,01,05,31,0.00
2018,09,01,05,32,0.00
2018,09,01,05,33,0.00
2018,09,01,05,34,0.00
2018,09,01,05,35,0.00
2018,09,01,05,36,0.00
2018,09,01,05,37,0.00
2018,09,01,05,38,0.00
2018,09,01,05,39,0.00
2018,09,01,05,40,0.00
2018,09,01,05,41,0.00
2018,09,01,05,42,0.00
2018,09,01,05,43,0.00
2018,09,01,05,44,0.00
2018,09,01,05,45,0.00
2018,09,01,05,46,0.00
2018,09,01,05,47,0.00
2018,09,01,05,48,0.00
2018,09,01,05,49,0.00
2018,09,01,05,50,0.00
2018,09,01,05,51,0.00
2018,09,01,05,52,0.00
2018,09,01,05,53,0.00
2018,09,01,05,54,0.00
2018,09,01,05,55,0.00
2018,09,01,05,56,0.00
2018,09,01,05,57,0.00
2018,09,01,05,58,0.00
2018,09,01,05,59,0.00
2018,09,01,06,00,0.00
2018,09,01,06,01,0.00
2018,09,01,06,02,0.00
2018,09,01,06,03,0.00
2018,09,01,06,04,0.00
2018,09,01,06,05,0.00
2018,09,01,06,06,0.00
2018,09,01,06,07,0.00
2018,09,01,06,08,0.00
2018,09,01,06,09,0.00
2018,09,01,06,10,0.00
2018,09,01,06,11,0.00
2018,09,01,06,12,0.00
2018,09,01,06,13,0.00
2018,09,01,06,14,0.00
2018,09,01,06,15,0.00
2018,09,01,06,16,0.00
2018,09,01,06,17,0.00
2018,09,01,06,18,0.00
2018,09,01,06,19,0.00
2018,09,01,06,20,0.00
2018,09,01,06,21,0.00
2018,09,01,06,22,0.00
2018,09,01,06,23,0.00
2018,09,01,06,24,0.00
2018,09,01,06,25,0.00
2018,09,01,06,26,0.00
2018,09,01,06,27,0.00
2018,09,01,06,28,0.00
2018,09,01,06,29,0.00
2018,09,01,06,30,0.00
2018,09,01,06,31,0.00
2018,09,01,06,32,0.00
2018,09,01,06,33,0.00
2018,09,01,06,34,0.00
2018,09,01,06,35,0.00
2018,09,01,06,36,0.00
2018,09,01,06,37,0.00
2018,09,01,06,38,1.30
2018,09,01,06,39,5.00
2018,09,01,06,40,5.00
2018,09,01,06,41,5.00
2018,09,01,06,42,6.30
2018,09,01,06,43,7.00
2018,09,01,06,44,7.00
2018,09,01,06,45,8.80
2018,09,01,06,46,9.00
2018,09,01,06,47,9.20
2018,09,01,06,48,11.00
2018,09,01,06,49,11.00
2018,09,01,06,50,11.40
2018,09,01,06,51,12.00
2018,09,01,06,52,12.00
2018,09,01,06,53,12.00
2018,09,01,06,54,13.40
2018,09,01,06,55,14.00
2018,09,01,06,56,15.80
2018,09,01,06,57,16.00
2018,09,01,06,58,16.30
2018,09,01,06,59,18.00
2018,09,01,07,00,18.00
2018,09,01,07,01,18.40
2018,09,01,07,02,19.00
2018,09,01,07,03,19.00
2018,09,01,07,04,20.30
2018,09,01,07,05,22.40
2018,09,01,07,06,23.00
2018,09,01,07,07,23.00
2018,09,01,07,08,25.00
2018,09,01,07,09,28.60
2018,09,01,07,10,33.40
2018,09,01,07,11,35.60
2018,09,01,07,12,36.30
2018,09,01,07,13,35.00
2018,09,01,07,14,36.00
2018,09,01,07,15,38.90
2018,09,01,07,16,42.80
2018,09,01,07,17,46.30
2018,09,01,07,18,48.70
2018,09,01,07,19,50.90
2018,09,01,07,20,53.10
2018,09,01,07,21,54.40
2018,09,01,07,22,56.60
2018,09,01,07,23,58.00
2018,09,01,07,24,59.80
2018,09,01,07,25,62.60
2018,09,01,07,26,65.50
2018,09,01,07,27,68.40
2018,09,01,07,28,69.80
2018,09,01,07,29,71.80
2018,09,01,07,30,74.00
2018,09,01,07,31,77.20
2018,09,01,07,32,79.40
2018,09,01,07,33,81.90
2018,09,01,07,34,85.50
2018,09,01,07,35,88.90
2018,09,01,07,36,91.60
2018,09,01,07,37,94.30
2018,09,01,07,38,96.40
2018,09,01,07,39,97.00
2018,09,01,07,40,99.60
2018,09,01,07,41,102.00
2018,09,01,07,42,105.00
2018,09,01,07,43,105.90
2018,09,01,07,44,109.60
2018,09,01,07,45,111.70
2018,09,01,07,46,113.50
2018,09,01,07,47,116.20
2018,09,01,07,48,119.30
2018,09,01,07,49,120.70
2018,09,01,07,50,124.30
2018,09,01,07,51,127.70
2018,09,01,07,52,130.00
2018,09,01,07,53,132.30
2018,09,01,07,54,135.40
2018,09,01,07,55,138.20
2018,09,01,07,56,141.40
2018,09,01,07,57,143.00
2018,09,01,07,58,145.10
2018,09,01,07,59,147.30
2018,09,01,08,00,148.70
2018,09,01,08,01,152.20
2018,09,01,08,02,155.60
2018,09,01,08,03,156.10
2018,09,01,08,04,160.20
2018,09,01,08,05,162.60
2018,09,01,08,06,165.50
2018,09,01,08,07,167.70
2018,09,01,08,08,169.90
2018,09,01,08,09,171.60
2018,09,01,08,10,172.00
2018,09,01,08,11,176.20
2018,09,01,08,12,180.40
2018,09,01,08,13,182.80
2018,09,01,08,14,186.00
2018,09,01,08,15,188.60
2018,09,01,08,16,192.20
2018,09,01,08,17,194.20
2018,09,01,08,18,198.10
2018,09,01,08,19,201.80
2018,09,01,08,20,205.00
2018,09,01,08,21,207.80
2018,09,01,08,22,210.40
2018,09,01,08,23,212.60
2018,09,01,08,24,215.70
2018,09,01,08,25,219.90
2018,09,01,08,26,221.60
2018,09,01,08,27,225.40
2018,09,01,08,28,227.90
2018,09,01,08,29,231.50
2018,09,01,08,30,235.00
2018,09,01,08,31,237.70
2018,09,01,08,32,240.30
2018,09,01,08,33,242.40
2018,09,01,08,34,245.30
2018,09,01,08,35,247.70
2018,09,01,08,36,250.00
2018,09,01,08,37,253.30
2018,09,01,08,38,255.70
2018,09,01,08,39,259.20
2018,09,01,08,40,262.70
2018,09,01,08,41,265.40
2018,09,01,08,42,268.10
2018,09,01,08,43,270.20
2018,09,01,08,44,273.00
2018,09,01,08,45,275.60
2018,09,01,08,46,278.70
2018,09,01,08,47,281.10
2018,09,01,08,48,285.30
2018,09,01,08,49,287.20
2018,09,01,08,50,289.20
2018,09,01,08,51,292.70
2018,09,01,08,52,294.40
2018,09,01,08,53,297.10
2018,09,01,08,54,300.30
2018,09,01,08,55,301.70
2018,09,01,08,56,305.30
2018,09,01,08,57,307.80
2018,09,01,08,58,309.00
2018,09,01,08,59,311.40
2018,09,01,09,00,315.20
2018,09,01,09,01,316.60
2018,09,01,09,02,319.50
2018,09,01,09,03,322.40
2018,09,01,09,04,324.00
2018,09,01,09,05,326.30
2018,09,01,09,06,329.10
2018,09,01,09,07,331.60
2018,09,01,09,08,333.80
2018,09,01,09,09,334.00
2018,09,01,09,10,339.20
2018,09,01,09,11,341.70
2018,09,01,09,12,345.30
2018,09,01,09,13,346.70
2018,09,01,09,14,349.00
2018,09,01,09,15,351.70
2018,09,01,09,16,355.50
2018,09,01,09,17,357.00
2018,09,01,09,18,359.40
2018,09,01,09,19,361.80
2018,09,01,09,20,364.10
2018,09,01,09,21,369.60
2018,09,01,09,22,373.00
2018,09,01,09,23,373.00
2018,09,01,09,24,374.10
2018,09,01,09,25,377.00
2018,09,01,09,26,378.00
2018,09,01,09,27,379.80
2018,09,01,09,28,382.30
2018,09,01,09,29,386.10
2018,09,01,09,30,389.60
2018,09,01,09,31,391.90
2018,09,01,09,32,394.20
2018,09,01,09,33,396.60
2018,09,01,09,34,399.60
2018,09,01,09,35,402.10
2018,09,01,09,36,405.80
2018,09,01,09,37,409.00
2018,09,01,09,38,411.90
2018,09,01,09,39,415.80
2018,09,01,09,40,420.90
2018,09,01,09,41,424.60
2018,09,01,09,42,430.70
2018,09,01,09,43,436.00
2018,09,01,09,44,437.30
2018,09,01,09,45,443.80
2018,09,01,09,46,446.00
2018,09,01,09,47,449.60
2018,09,01,09,48,447.90
2018,09,01,09,49,421.00
2018,09,01,09,50,403.10
2018,09,01,09,51,385.40
2018,09,01,09,52,353.40
2018,09,01,09,53,346.70
2018,09,01,09,54,389.70
2018,09,01,09,55,434.20
2018,09,01,09,56,466.00
2018,09,01,09,57,467.10
2018,09,01,09,58,471.70
2018,09,01,09,59,475.00
2018,09,01,10,00,475.60
2018,09,01,10,01,466.10
2018,09,01,10,02,439.20
2018,09,01,10,03,406.40
2018,09,01,10,04,363.80
2018,09,01,10,05,423.90
2018,09,01,10,06,445.80
2018,09,01,10,07,443.40
2018,09,01,10,08,451.60
2018,09,01,10,09,473.00
2018,09,01,10,10,479.20
2018,09,01,10,11,485.00
2018,09,01,10,12,486.40
2018,09,01,10,13,488.60
2018,09,01,10,14,489.00
2018,09,01,10,15,495.80
2018,09,01,10,16,497.30
2018,09,01,10,17,499.90
2018,09,01,10,18,492.00
2018,09,01,10,19,474.90
2018,09,01,10,20,484.70
2018,09,01,10,21,490.80
2018,09,01,10,22,501.00
2018,09,01,10,23,508.70
2018,09,01,10,24,514.30
2018,09,01,10,25,515.00
2018,09,01,10,26,515.10
2018,09,01,10,27,519.00
2018,09,01,10,28,519.70
2018,09,01,10,29,523.50
2018,09,01,10,30,528.50
2018,09,01,10,31,532.30
2018,09,01,10,32,537.30
2018,09,01,10,33,541.90
2018,09,01,10,34,547.90
2018,09,01,10,35,555.40
2018,09,01,10,36,563.20
2018,09,01,10,37,549.70
2018,09,01,10,38,533.30
2018,09,01,10,39,568.40
2018,09,01,10,40,568.80
2018,09,01,10,41,564.90
2018,09,01,10,42,566.60
2018,09,01,10,43,573.10
2018,09,01,10,44,572.50
2018,09,01,10,45,568.90
2018,09,01,10,46,569.60
2018,09,01,10,47,577.10
2018,09,01,10,48,586.80
2018,09,01,10,49,590.30
2018,09,01,10,50,583.40
2018,09,01,10,51,579.20
2018,09,01,10,52,574.20
2018,09,01,10,53,560.10
2018,09,01,10,54,571.80
2018,09,01,10,55,586.40
2018,09,01,10,56,571.40
2018,09,01,10,57,585.80
2018,09,01,10,58,593.80
2018,09,01,10,59,594.30
2018,09,01,11,00,603.60
2018,09,01,11,01,608.00
2018,09,01,11,02,609.20
2018,09,01,11,03,613.10
2018,09,01,11,04,616.80
2018,09,01,11,05,624.00
2018,09,01,11,06,631.10
2018,09,01,11,07,634.40
2018,09,01,11,08,640.40
2018,09,01,11,09,642.90
2018,09,01,11,10,648.90
2018,09,01,11,11,652.80
2018,09,01,11,12,658.60
2018,09,01,11,13,656.20
2018,09,01,11,14,651.40
2018,09,01,11,15,646.10
2018,09,01,11,16,642.40
2018,09,01,11,17,638.80
2018,09,01,11,18,638.00
2018,09,01,11,19,639.60
2018,09,01,11,20,640.00
2018,09,01,11,21,645.30
2018,09,01,11,22,657.70
2018,09,01,11,23,664.10
2018,09,01,11,24,668.80
2018,09,01,11,25,671.70
2018,09,01,11,26,675.70
2018,09,01,11,27,680.60
2018,09,01,11,28,686.10
2018,09,01,11,29,693.90
2018,09,01,11,30,699.10
2018,09,01,11,31,702.60
2018,09,01,11,32,706.60
2018,09,01,11,33,704.00
2018,09,01,11,34,695.40
2018,09,01,11,35,693.80
2018,09,01,11,36,696.00
2018,09,01,11,37,464.90
2018,09,01,11,38,139.20
2018,09,01,11,39,96.10
2018,09,01,11,40,90.00
2018,09,01,11,41,117.20
2018,09,01,11,42,125.00
2018,09,01,11,43,652.30
2018,09,01,11,44,706.10
2018,09,01,11,45,716.30
2018,09,01,11,46,720.20
2018,09,01,11,47,715.70
2018,09,01,11,48,719.20
2018,09,01,11,49,723.00
2018,09,01,11,50,736.60
2018,09,01,11,51,744.00
2018,09,01,11,52,744.00
2018,09,01,11,53,731.20
2018,09,01,11,54,729.00
2018,09,01,11,55,729.00
2018,09,01,11,56,729.00
2018,09,01,11,57,729.00
2018,09,01,11,58,729.00
2018,09,01,11,59,729.00
2018,09,01,12,00,431.40
2018,09,01,12,01,155.00
2018,09,01,12,02,155.00
2018,09,01,12,03,155.00
2018,09,01,12,04,654.60
2018,09,01,12,05,727.60
2018,09,01,12,06,728.00
2018,09,01,12,07,719.30
2018,09,01,12,08,693.10
2018,09,01,12,09,714.10
2018,09,01,12,10,707.20
2018,09,01,12,11,716.10
2018,09,01,12,12,756.60
2018,09,01,12,13,761.00
2018,09,01,12,14,761.00
2018,09,01,12,15,761.00
2018,09,01,12,16,224.60
2018,09,01,12,17,204.00
2018,09,01,12,18,204.00
2018,09,01,12,19,255.60
2018,09,01,12,20,378.00
2018,09,01,12,21,264.70
2018,09,01,12,22,123.00
2018,09,01,12,23,123.00
2018,09,01,12,24,498.10
2018,09,01,12,25,691.00
2018,09,01,12,26,700.10
2018,09,01,12,27,696.70
2018,09,01,12,28,708.20
2018,09,01,12,29,710.70
2018,09,01,12,30,713.50
2018,09,01,12,31,713.10
2018,09,01,12,32,712.80
2018,09,01,12,33,710.00
2018,09,01,12,34,710.00
2018,09,01,12,35,710.00
2018,09,01,12,36,710.00
2018,09,01,12,37,696.40
2018,09,01,12,38,672.50
2018,09,01,12,39,112.00
2018,09,01,12,40,107.00
2018,09,01,12,41,120.00
2018,09,01,12,42,120.00
2018,09,01,12,43,375.10
2018,09,01,12,44,690.40
2018,09,01,12,45,684.00
2018,09,01,12,46,696.80
2018,09,01,12,47,700.70
2018,09,01,12,48,688.10
2018,09,01,12,49,708.40
2018,09,01,12,50,715.00
2018,09,01,12,51,720.60
2018,09,01,12,52,744.70
2018,09,01,12,53,743.30
2018,09,01,12,54,733.10
2018,09,01,12,55,730.30
2018,09,01,12,56,738.00
2018,09,01,12,57,427.70
2018,09,01,12,58,297.00
2018,09,01,12,59,129.20
2018,09,01,13,00,80.70
2018,09,01,13,01,105.00
2018,09,01,13,02,214.80
2018,09,01,13,03,698.50
2018,09,01,13,04,698.50
2018,09,01,13,05,696.00
2018,09,01,13,06,693.40
2018,09,01,13,07,682.70
2018,09,01,13,08,680.50
2018,09,01,13,09,692.90
2018,09,01,13,10,679.80
2018,09,01,13,11,675.90
2018,09,01,13,12,695.70
2018,09,01,13,13,695.20
2018,09,01,13,14,707.10
2018,09,01,13,15,707.60
2018,09,01,13,16,690.70
2018,09,01,13,17,688.90
2018,09,01,13,18,698.00
2018,09,01,13,19,698.00
2018,09,01,13,20,698.00
2018,09,01,13,21,700.60
2018,09,01,13,22,687.10
2018,09,01,13,23,680.30
2018,09,01,13,24,707.20
2018,09,01,13,25,707.70
2018,09,01,13,26,704.80
2018,09,01,13,27,701.00
2018,09,01,13,28,701.00
2018,09,01,13,29,704.60
2018,09,01,13,30,707.00
2018,09,01,13,31,707.80
2018,09,01,13,32,709.70
2018,09,01,13,33,709.70
2018,09,01,13,34,698.90
2018,09,01,13,35,679.80
2018,09,01,13,36,670.30
2018,09,01,13,37,669.90
2018,09,01,13,38,666.20
2018,09,01,13,39,667.60
2018,09,01,13,40,670.40
2018,09,01,13,41,667.20
2018,09,01,13,42,666.00
2018,09,01,13,43,525.40
2018,09,01,13,44,507.70
2018,09,01,13,45,682.60
2018,09,01,13,46,687.00
2018,09,01,13,47,687.00
2018,09,01,13,48,687.00
2018,09,01,13,49,673.20
2018,09,01,13,50,667.70
2018,09,01,13,51,678.90
2018,09,01,13,52,677.90
2018,09,01,13,53,682.70
2018,09,01,13,54,671.60
2018,09,01,13,55,663.30
2018,09,01,13,56,666.20
2018,09,01,13,57,676.60
2018,09,01,13,58,663.90
2018,09,01,13,59,649.90
2018,09,01,14,00,651.70
2018,09,01,14,01,662.10
2018,09,01,14,02,666.10
2018,09,01,14,03,671.50
2018,09,01,14,04,676.30
2018,09,01,14,05,673.40
2018,09,01,14,06,673.00
2018,09,01,14,07,672.40
2018,09,01,14,08,663.80
2018,09,01,14,09,651.10
2018,09,01,14,10,658.60
2018,09,01,14,11,666.60
2018,09,01,14,12,673.20
2018,09,01,14,13,672.00
2018,09,01,14,14,661.20
2018,09,01,14,15,664.30
2018,09,01,14,16,663.30
2018,09,01,14,17,661.10
2018,09,01,14,18,660.70
2018,09,01,14,19,659.40
2018,09,01,14,20,661.90
2018,09,01,14,21,663.60
2018,09,01,14,22,657.70
2018,09,01,14,23,655.80
2018,09,01,14,24,657.80
2018,09,01,14,25,654.90
2018,09,01,14,26,655.60
2018,09,01,14,27,656.00
2018,09,01,14,28,649.80
2018,09,01,14,29,656.00
2018,09,01,14,30,655.30
2018,09,01,14,31,650.70
2018,09,01,14,32,649.60
2018,09,01,14,33,653.10
2018,09,01,14,34,651.00
2018,09,01,14,35,649.40
2018,09,01,14,36,644.80
2018,09,01,14,37,636.80
2018,09,01,14,38,613.70
2018,09,01,14,39,611.20
2018,09,01,14,40,643.80
2018,09,01,14,41,650.40
2018,09,01,14,42,650.70
2018,09,01,14,43,645.50
2018,09,01,14,44,639.90
2018,09,01,14,45,637.00
2018,09,01,14,46,636.10
2018,09,01,14,47,639.90
2018,09,01,14,48,637.30
2018,09,01,14,49,627.50
2018,09,01,14,50,632.70
2018,09,01,14,51,630.80
2018,09,01,14,52,628.80
2018,09,01,14,53,630.10
2018,09,01,14,54,623.10
2018,09,01,14,55,615.50
2018,09,01,14,56,630.10
2018,09,01,14,57,622.20
2018,09,01,14,58,617.00
2018,09,01,14,59,620.90
2018,09,01,15,00,619.30
2018,09,01,15,01,586.20
2018,09,01,15,02,586.40
2018,09,01,15,03,605.10
2018,09,01,15,04,607.50
2018,09,01,15,05,621.90
2018,09,01,15,06,611.90
2018,09,01,15,07,610.70
2018,09,01,15,08,609.90
2018,09,01,15,09,602.80
2018,09,01,15,10,599.40
2018,09,01,15,11,599.00
2018,09,01,15,12,619.40
2018,09,01,15,13,618.90
2018,09,01,15,14,609.60
2018,09,01,15,15,617.30
2018,09,01,15,16,601.80
2018,09,01,15,17,586.90
2018,09,01,15,18,586.30
2018,09,01,15,19,601.60
2018,09,01,15,20,563.10
2018,09,01,15,21,550.40
2018,09,01,15,22,579.30
2018,09,01,15,23,573.30
2018,09,01,15,24,570.60
2018,09,01,15,25,574.10
2018,09,01,15,26,572.40
2018,09,01,15,27,579.50
2018,09,01,15,28,566.40
2018,09,01,15,29,546.00
2018,09,01,15,30,541.90
2018,09,01,15,31,542.10
2018,09,01,15,32,553.90
2018,09,01,15,33,517.00
2018,09,01,15,34,533.10
2018,09,01,15,35,492.80
2018,09,01,15,36,555.40
2018,09,01,15,37,559.90
2018,09,01,15,38,568.70
2018,09,01,15,39,570.00
2018,09,01,15,40,561.10
2018,09,01,15,41,550.20
2018,09,01,15,42,544.50
2018,09,01,15,43,507.10
2018,09,01,15,44,507.00
2018,09,01,15,45,532.70
2018,09,01,15,46,523.30
2018,09,01,15,47,520.80
2018,09,01,15,48,541.80
2018,09,01,15,49,570.10
2018,09,01,15,50,552.80
2018,09,01,15,51,546.00
2018,09,01,15,52,554.60
2018,09,01,15,53,561.80
2018,09,01,15,54,556.80
2018,09,01,15,55,556.70
2018,09,01,15,56,536.40
2018,09,01,15,57,527.90
2018,09,01,15,58,537.80
2018,09,01,15,59,514.10
2018,09,01,16,00,510.50
2018,09,01,16,01,507.10
2018,09,01,16,02,511.70
2018,09,01,16,03,505.70
2018,09,01,16,04,505.30
2018,09,01,16,05,504.90
2018,09,01,16,06,491.20
2018,09,01,16,07,496.90
2018,09,01,16,08,498.70
2018,09,01,16,09,478.00
2018,09,01,16,10,466.60
2018,09,01,16,11,470.60
2018,09,01,16,12,487.00
2018,09,01,16,13,489.60
2018,09,01,16,14,486.30
2018,09,01,16,15,471.00
2018,09,01,16,16,445.00
2018,09,01,16,17,445.00
2018,09,01,16,18,473.40
2018,09,01,16,19,459.60
2018,09,01,16,20,449.30
2018,09,01,16,21,454.70
2018,09,01,16,22,427.70
2018,09,01,16,23,381.70
2018,09,01,16,24,359.80
2018,09,01,16,25,341.00
2018,09,01,16,26,349.40
2018,09,01,16,27,376.30
2018,09,01,16,28,400.90
2018,09,01,16,29,342.90
2018,09,01,16,30,326.20
2018,09,01,16,31,232.00
2018,09,01,16,32,278.80
2018,09,01,16,33,400.00
2018,09,01,16,34,401.00
2018,09,01,16,35,364.90
2018,09,01,16,36,382.90
2018,09,01,16,37,389.70
2018,09,01,16,38,346.90
2018,09,01,16,39,328.30
2018,09,01,16,40,323.10
2018,09,01,16,41,324.20
2018,09,01,16,42,334.40
2018,09,01,16,43,341.60
2018,09,01,16,44,360.90
2018,09,01,16,45,402.10
2018,09,01,16,46,431.10
2018,09,01,16,47,446.60
2018,09,01,16,48,418.80
2018,09,01,16,49,415.80
2018,09,01,16,50,421.70
2018,09,01,16,51,425.70
2018,09,01,16,52,401.80
2018,09,01,16,53,395.00
2018,09,01,16,54,381.90
2018,09,01,16,55,342.20
2018,09,01,16,56,402.70
2018,09,01,16,57,423.70
2018,09,01,16,58,376.10
2018,09,01,16,59,352.00
2018,09,01,17,00,339.60
2018,09,01,17,01,382.20
2018,09,01,17,02,349.50
2018,09,01,17,03,338.80
2018,09,01,17,04,270.00
2018,09,01,17,05,284.60
2018,09,01,17,06,252.90
2018,09,01,17,07,214.80
2018,09,01,17,08,198.00
2018,09,01,17,09,190.80
2018,09,01,17,10,188.80
2018,09,01,17,11,197.00
2018,09,01,17,12,230.50